Quick Transport Solutions Inc.

QuickTSI Load Board


Search Freight by Criteria



Load Search Results

Page 3 of 2,348 results
Pickup City Drop City Pickup Date Delivery Equipment Weight Size Company Phone
Bartonville, ILSpring Hill, FL04/25/2018 Wed04/27/2018 FriFlatbed16Full 48Total Quality Logistics(800) 580-3101 Post ID 383175 / NO TARP with a stop in Ashland KY
Batavia, ILChubbuck, ID04/27/2018 Fri Van35Full 53Hub Group Whitestown(877) 695-3986 VERTICAL ETRACK 877 695 3986
Batavia, ILBurton, MI04/30/2018 Mon Van35Full 53Hub Group Whitestown(877) 695-3986 VERTICAL ETRACK 877 695 3986
Batavia, Il, ILColumbus, Oh, OH4/23/2018 Mon FST LogisticsDispatch (800) 758-4599 Load#109308
Bedford Park, ILEarlville, IA04/20/2018 Fri04/23/2018 Mon30Full 48Total Quality Logistics(800) 580-3101 Post ID 703730 /


Bedford Park, ILEarlville, IA04/23/2018 Mon04/23/2018 Mon30Full 48Total Quality Logistics(800) 580-3101 Post ID 701493 / ext 50272
Bedford Park, ILMidland, MI04/23/2018 Mon Reefer13Full 53BM2 Freight Services Inc.(859) 308-5100 Contact: x1227
Bedford Park, ILOklahoma City, OK04/23/2018 Mon04/25/2018 WedFlatbed w/Tarps48Full 48Logistic Dynamics Inc.(716) 247-6300 Reference Load #PL1067232
Bedford Park, ILSealy, TX04/24/2018 Tue04/26/2018 ThuVan or Reefer0Full 48Total Transportation Service DBA Positive Transportation Services(888) 552-5514
Bellwood, ILSheboygan, WI05/17/2018 08:00 Thu05/18/2018 08:00 FriVan43Full 53Mid America Logistics Rate:$350(636) 226-4874 PLEASE EMAIL: alexh /AT/ midamlogistics.com or CALL 636.226.4874 ***THANKS FOR TRUCK/ RATES/ OFFERS*** ***ALWAYS LOOKING FOR DEDICATED/REPEAT TRUCKS/FLEETS/OWNER OPS***
Belvidere, ILRiverside, CA04/23/2018 16:00 Mon04/27/2018 FriReefer43Full 53Total Quality Logistics(800) 580-3101 Ext 43301
Belvidere, ILRiverside, CA04/23/2018 17:00 Mon04/27/2018 FriReefer43Full 53Total Quality Logistics(800) 580-3101 Ext 43301
Bensenville, ILOgden, UT04/21/2018 Sat04/24/2018 TueVan or Reefer41Full 48Total Quality Logistics(800) 580-3101 Post ID 322060 /
Bensenville, ILSwedesboro, NJ04/21/2018 Sat04/23/2018 MonVan23Full 53Total Quality Logistics(800) 580-3101 Post ID 956582 / Sat Pick 7-10am 2200
Bensenville, ILSwedesboro, NJ04/21/2018 Sat04/23/2018 MonVan27Full 53Total Quality Logistics(800) 580-3101 Post ID 380082 / Pickup Sat 7-10am
Bensenville, ILSavannah, TN04/23/2018 Mon Flatbed w/Tarps17Partial 20Transportation Express AM(402) 564-6375 CALL


Bensenville, ILSavannah, TN04/23/2018 Mon Flatbed w/Tarps17Partial 20Tri-Bros Transportation LLC(607) 296-4527
Bensenville / Il, ILFort Wayne / In, IN4/23/2018 Mon Van Manning Truck BrokerageDispatch (800) 228-2761
Bloomington, ILKearney, NE04/20/2018 07:00 Fri04/23/2018 Mon0Full 48Total Quality Logistics(800) 580-3101 Post ID 395340 /
Bloomington, ILKearney, NE04/20/2018 07:00 Fri04/23/2018 Mon0Full 48Total Quality Logistics(800) 580-3101 Post ID 720537 /
Bloomington, ILKearney, NE04/21/2018 07:00 Sat04/23/2018 Mon0Full 48Total Quality Logistics(800) 580-3101 Post ID 395341 /
Bloomington, ILJackson, TN04/23/2018 Mon04/24/2018 TueVan41Full 53Total Quality Logistics(800) 580-3101 Post ID 718149 /
Bloomington, ILMarietta, GA04/23/2018 Mon04/24/2018 TueVan42Full 48Total Quality Logistics(800) 580-3101 Post ID 365881 /
Bloomington, ILMarietta, GA04/23/2018 Mon04/24/2018 TueVan41Full 53Total Quality Logistics(800) 580-3101 Post ID 705765 /
Bloomington, ILMentor, OH04/23/2018 Mon04/24/2018 TueVan41Full 48Total Quality Logistics(800) 580-3101 Post ID 374031 /
Bloomington, ILYork, PA04/23/2018 Mon04/25/2018 WedVan or Reefer40Full 53Total Quality Logistics(800) 580-3101 Post ID 388296 /
Bloomington, ILKearney, NE04/23/2018 07:00 Mon04/24/2018 Tue0Full 48Total Quality Logistics(800) 580-3101 Post ID 395646 /
Bloomington, ILDayton, OH04/24/2018 Tue04/25/2018 WedVan41Full 53Total Quality Logistics(800) 580-3101 Post ID 705764 /
Bloomington / Il, ILPhillips / Ne, NE4/23/2018 Mon Van Manning Truck BrokerageDispatch (800) 228-2761
Bolingbrook, ILDel Rio, TX04/19/2018 Thu04/21/2018 SatVan10Full 53Total Quality Logistics(800) 580-3101 Post ID 372163 /
Bolingbrook, ILNorth Houston, TX04/19/2018 Thu04/23/2018 MonFlatbed0Full 48Total Quality Logistics(800) 580-3101 Post ID 379769 /


Bolingbrook, ILOlympia, WA04/19/2018 20:00 Thu04/23/2018 MonReefer35Full 53Total Quality Logistics(800) 580-3101 Post ID 344323 /
Bolingbrook, ILCleveland, OH04/20/2018 Fri04/21/2018 Sat36Full 48Total Quality Logistics(800) 580-3101 Post ID 720403 /
Bolingbrook, ILTempe, AZ04/20/2018 Fri04/20/2018 FriVan or Reefer15Full 48Total Quality Logistics(800) 580-3101 Post ID 714932 / 13 SKIDS
Bolingbrook, ILTempe, AZ04/20/2018 Fri04/20/2018 FriVan or Reefer15Partial 13Total Quality Logistics(800) 580-3101 Post ID 714928 / 13 SKIDS
Bolingbrook, ILMobile, AL04/20/2018 07:00 Fri04/23/2018 MonVan11Full 53Total Quality Logistics(800) 580-3101 Post ID 396597 /
Bolingbrook, ILBoise, ID04/21/2018 Sat04/24/2018 TueVan or Reefer0Full 48Total Quality Logistics(800) 580-3101 Post ID 923546 /
Bolingbrook, ILBoise, ID04/21/2018 Sat04/24/2018 TueVan or Reefer0Full 48Total Quality Logistics(800) 580-3101 Post ID 930812 /
Bolingbrook, ILBoise, ID04/21/2018 Sat04/24/2018 TueVan or Reefer0Full 48Total Quality Logistics(800) 580-3101 Post ID 976552 /
Bolingbrook, ILPortland, OR04/21/2018 Sat04/25/2018 WedVan or Reefer0Full 48Total Quality Logistics(800) 580-3101 Post ID 704860 /
Bolingbrook, ILSalt Lake City, UT04/21/2018 Sat04/24/2018 TueVan or Reefer0Full 48Total Quality Logistics(800) 580-3101 Post ID 311015 /
Bolingbrook, ILSalt Lake City, UT04/21/2018 Sat04/24/2018 TueVan or Reefer0Full 48Total Quality Logistics(800) 580-3101 Post ID 976654 /
Bolingbrook, ILAugusta, ME04/22/2018 Sun04/24/2018 TueVan or Reefer32Full 48Total Quality Logistics(800) 580-3101 Post ID 705090 /
Bolingbrook, ILBoise, ID04/22/2018 Sun04/25/2018 WedVan or Reefer0Full 48Total Quality Logistics(800) 580-3101 Post ID 311014 /
Bolingbrook, ILBoise, ID04/22/2018 Sun04/25/2018 WedVan or Reefer0Full 48Total Quality Logistics(800) 580-3101 Post ID 705074 /
Bolingbrook, ILBoise, ID04/22/2018 Sun04/25/2018 WedVan or Reefer0Full 48Total Quality Logistics(800) 580-3101 Post ID 923543 /
Bolingbrook, ILBoise, ID04/22/2018 Sun04/25/2018 WedVan or Reefer0Full 48Total Quality Logistics(800) 580-3101 Post ID 930813 /
Bolingbrook, ILBoise, ID04/22/2018 Sun04/25/2018 WedVan or Reefer0Full 48Total Quality Logistics(800) 580-3101 Post ID 976629 /
Bolingbrook, ILBoise, ID04/22/2018 Sun04/25/2018 WedVan or Reefer41Full 48Total Quality Logistics(800) 580-3101 Post ID 322044 /
Bolingbrook, ILRichmond, VA04/22/2018 Sun04/24/2018 TueVan or Reefer0Full 48Total Quality Logistics(800) 580-3101 Post ID 705092 /
About QuickTSI

QuickTSI is your one-stop-shop for everything you need to run your transportation and freight logistics business. Our website allows you to post load or find trucks, post trucks or find loads, look up carrier profiles, view trucking companies, find truck driving jobs, and DOT medical examniers.

Contact Us

Quick Transport Solutions, Inc.
11501 Dublin Blvd. Suite 200
Dublin, CA 94568

510-887-9300
510-284-7280

Mailing Address

Quick Transport Solutions, Inc.
PO Box 3686
Hayward, CA 94544-3686

Terms & Conditions    Privacy Policy

© 2011-2018 Quick Transport Solutions Inc.